Date String (YYYY-MM-DD hh:mm:ss) UTC,Instrument flags,Ambient pressure (hPa),Sample flow (lpm),Bypass flow (lpm),Sample temperature (°C),Ambient temperature (°C),ASC tube jacket temperature (°C),LED temperature (°C),Box temperature (°C),Sample RH (%),Span deviation,Mass concentration (μg/m³),Mass concentration (μg/m³),Mass concentration (μg/m³)
DateTimeUTC,F1_M11,P_M11,Q1_M11,Q2_M11,T1_M11,T2_M11,T3_M11,T4_M11,T5_M11,U1_M11,ZSPAN_M11,X0_M11,X2_M11,X1_M11
2022-12-22 02:00:00,,0823.8,4.98,0.00,21.1,18.8,00.0,30.0,22.1,03.9,0000.6,0035.05,0008.76,0004.11
2022-12-22 02:01:00,,0824.0,4.99,0.00,20.9,18.7,00.0,29.9,22.0,03.9,0000.5,0034.55,0008.70,0004.10
2022-12-22 02:02:00,,0824.1,5.03,0.00,21.0,19.6,00.0,29.8,22.2,03.9,0000.2,0034.34,0008.61,0004.10
2022-12-22 02:03:00,,0824.1,5.02,0.00,21.0,20.3,00.0,29.8,22.5,03.9,0000.3,0033.91,0008.64,0004.11
2022-12-22 02:04:00,,0824.1,4.98,0.00,21.1,20.9,00.0,29.7,22.7,03.9,0000.8,0034.54,0008.66,0004.11
2022-12-22 02:05:00,,0824.0,4.99,0.00,21.2,21.4,00.0,29.8,22.8,03.9,0000.6,0033.22,0008.68,0004.13
2022-12-22 02:06:00,,0823.9,5.03,0.00,21.3,21.6,00.0,29.8,23.0,03.8,0001.4,0032.55,0008.56,0004.14
2022-12-22 02:07:00,,0823.8,4.97,0.00,21.3,21.8,00.0,29.8,23.0,03.8,0001.4,0031.75,0008.48,0004.16
2022-12-22 02:08:00,,0823.9,5.04,0.00,21.4,22.0,00.0,29.9,23.2,03.8,0001.4,0031.03,0008.46,0004.16
2022-12-22 02:09:00,,0823.9,4.97,0.00,21.5,21.9,00.0,29.9,23.1,03.8,0001.4,0028.75,0008.27,0004.15
2022-12-22 02:10:00,,0824.0,5.02,0.00,21.4,20.7,00.0,30.0,22.7,03.8,0000.9,0027.72,0008.08,0004.14
2022-12-22 02:11:00,,0824.0,4.97,0.00,21.1,19.2,00.0,30.0,22.2,03.8,0000.8,0028.46,0008.05,0004.14
2022-12-22 02:12:00,,0824.1,4.98,0.00,20.9,18.2,00.0,30.0,21.9,03.8,0000.9,0027.90,0008.05,0004.14
2022-12-22 02:13:00,,0824.2,5.02,0.00,20.8,18.8,00.0,29.9,22.0,03.8,0001.3,0026.70,0007.98,0004.12
2022-12-22 02:14:00,,0824.3,5.03,0.00,20.9,19.7,00.0,29.8,22.2,03.8,0001.2,0026.60,0007.92,0004.11
2022-12-22 02:15:00,,0824.2,4.97,0.00,21.0,20.4,00.0,29.7,22.4,03.8,0000.9,0025.63,0007.86,0004.11
2022-12-22 02:16:00,,0824.2,5.03,0.00,21.0,21.0,00.0,29.7,22.7,03.8,0000.8,0025.50,0007.76,0004.10
2022-12-22 02:17:00,,0824.1,4.97,0.00,21.1,21.3,00.0,29.7,22.8,03.7,0000.5,0024.88,0007.72,0004.08
2022-12-22 02:18:00,,0824.1,5.00,0.00,21.2,21.4,00.0,29.8,22.9,03.7,0000.8,0024.78,0007.72,0004.07
2022-12-22 02:19:00,,0824.3,5.00,0.00,21.3,21.6,00.0,29.8,23.0,03.7,0001.0,0025.02,0007.68,0004.07
2022-12-22 02:20:00,,0824.4,4.97,0.00,21.4,21.7,00.0,29.8,23.1,03.7,0001.2,0025.36,0007.60,0004.05
2022-12-22 02:21:00,,0824.4,5.05,0.00,21.4,21.9,00.0,29.8,23.2,03.6,0001.3,0025.51,0007.56,0004.04
2022-12-22 02:22:00,,0824.4,4.97,0.00,21.5,22.1,00.0,29.9,23.3,03.6,0000.8,0025.33,0007.42,0004.01
2022-12-22 02:23:00,,0824.4,5.03,0.00,21.5,21.2,00.0,30.0,22.9,03.6,0000.8,0026.37,0007.28,0003.99
2022-12-22 02:24:00,,0824.3,4.96,0.00,21.3,19.8,00.0,30.0,22.5,03.6,0000.6,0025.62,0007.25,0003.98
2022-12-22 02:25:00,,0824.4,5.04,0.00,21.0,18.6,00.0,30.0,22.0,03.7,0000.6,0025.51,0007.22,0003.97
2022-12-22 02:26:00,,0824.6,5.03,0.00,20.9,18.5,00.0,29.9,21.9,03.7,0000.4,0026.36,0007.12,0003.96
2022-12-22 02:27:00,,0824.6,4.99,0.00,20.9,19.6,00.0,29.9,22.2,03.7,0001.1,0025.87,0007.08,0003.94
2022-12-22 02:28:00,,0824.8,4.99,0.00,21.0,20.4,00.0,29.8,22.5,03.7,0001.2,0025.13,0006.93,0003.92
2022-12-22 02:29:00,,0824.9,4.99,0.00,21.1,21.1,00.0,29.8,22.7,03.7,0000.3,0024.67,0006.87,0003.90
2022-12-22 02:30:00,,0824.9,5.00,0.00,21.2,21.5,00.0,29.8,22.9,03.7,0000.3,0024.06,0006.77,0003.89
2022-12-22 02:31:00,,0824.7,4.97,0.00,21.2,21.6,00.0,29.9,22.9,03.6,0000.3,0023.66,0006.81,0003.88
2022-12-22 02:32:00,,0824.8,5.04,0.00,21.1,20.5,00.0,29.9,22.6,03.6,0000.6,0023.54,0006.84,0003.90
2022-12-22 02:33:00,,0824.4,4.95,0.00,21.0,19.2,00.0,29.9,22.1,03.7,0001.2,0022.57,0006.89,0003.93
2022-12-22 02:34:00,,0824.6,4.99,0.00,20.8,18.3,00.0,29.9,21.8,03.7,0001.8,0021.81,0006.88,0003.93
2022-12-22 02:35:00,,0824.4,5.02,0.00,20.7,19.0,00.0,29.8,21.9,03.7,0001.8,0022.49,0006.86,0003.94
2022-12-22 02:36:00,,0824.4,5.00,0.00,20.8,19.8,00.0,29.7,22.2,03.7,0001.8,0023.01,0006.74,0003.93
2022-12-22 02:37:00,,0824.4,4.99,0.00,20.9,20.4,00.0,29.6,22.4,03.7,0002.1,0022.14,0006.77,0003.93
2022-12-22 02:38:00,,0824.5,4.98,0.00,20.9,20.9,00.0,29.6,22.6,03.7,0001.2,0022.14,0006.80,0003.93
2022-12-22 02:39:00,,0824.5,5.05,0.00,21.0,21.3,00.0,29.6,22.7,03.7,0000.8,0022.06,0006.84,0003.94
2022-12-22 02:40:00,,0824.6,4.97,0.00,21.1,21.5,00.0,29.7,22.9,03.6,0001.4,0021.51,0006.82,0003.93
2022-12-22 02:41:00,,0824.8,4.99,0.00,21.2,21.8,00.0,29.7,23.0,03.6,0001.3,0021.13,0006.77,0003.91
2022-12-22 02:42:00,,0824.8,5.02,0.00,21.3,22.0,00.0,29.7,23.1,03.6,0001.0,0020.78,0006.70,0003.90
2022-12-22 02:43:00,,0824.6,4.97,0.00,21.4,21.6,00.0,29.8,23.0,03.6,0000.2,0020.79,0006.65,0003.87
2022-12-22 02:44:00,,0825.0,5.04,0.00,21.2,20.3,00.0,29.9,22.6,03.6,-000.2,0020.61,0006.57,0003.84
2022-12-22 02:45:00,,0825.4,4.99,0.00,21.0,19.1,00.0,29.9,22.1,03.6,-001.0,0019.87,0006.57,0003.84
2022-12-22 02:46:00,,0825.3,4.97,0.00,20.8,18.8,00.0,29.9,22.0,03.7,-001.0,0019.87,0006.56,0003.83
2022-12-22 02:47:00,,0824.7,5.04,0.00,20.9,19.8,00.0,29.8,22.3,03.6,-001.0,0018.45,0006.55,0003.82
2022-12-22 02:48:00,,0824.5,4.98,0.00,21.0,20.6,00.0,29.7,22.5,03.6,-001.1,0017.94,0006.56,0003.80
2022-12-22 02:49:00,,0824.8,5.03,0.00,21.1,21.1,00.0,29.7,22.7,03.6,-001.1,0017.70,0006.52,0003.79
2022-12-22 02:50:00,,0825.3,4.98,0.00,21.2,21.5,00.0,29.7,22.9,03.6,-001.2,0017.84,0006.55,0003.79
2022-12-22 02:51:00,,0825.5,5.03,0.00,21.3,21.9,00.0,29.8,23.0,03.6,-000.7,0018.27,0006.59,0003.80
2022-12-22 02:52:00,,0825.3,4.96,0.00,21.2,20.9,00.0,29.9,22.8,03.6,-000.3,0017.96,0006.54,0003.81
2022-12-22 02:53:00,,0825.1,5.03,0.00,21.1,19.7,00.0,29.9,22.4,03.6,0000.1,0017.83,0006.53,0003.84
2022-12-22 02:54:00,,0825.0,4.98,0.00,20.9,18.8,00.0,29.9,22.1,03.6,0000.5,0017.29,0006.52,0003.86
2022-12-22 02:55:00,,0825.3,5.00,0.00,20.8,19.1,00.0,29.8,22.1,03.6,0000.7,0017.82,0006.51,0003.85
2022-12-22 02:56:00,,0825.2,5.03,0.00,20.9,20.1,00.0,29.7,22.3,03.6,0001.2,0018.54,0006.47,0003.86
2022-12-22 02:57:00,,0825.1,4.96,0.00,21.0,20.9,00.0,29.7,22.6,03.6,0001.4,0018.64,0006.40,0003.86
2022-12-22 02:58:00,,0825.1,5.04,0.00,21.1,21.5,00.0,29.7,22.8,03.6,0001.0,0019.68,0006.43,0003.88
2022-12-22 02:59:00,,0825.2,4.98,0.00,21.2,21.8,00.0,29.8,23.0,03.6,0000.8,0020.11,0006.35,0003.87
